Погода в Цесисе

Латвия     57°18′46″N   25°16′20″E
темп.,
°C
ветер,
м/с
пор.,
м/с
влажн.,
%
обл.,
%
осадки,
мм/ч
давл.,
гПа
погр.,
м
5 марта, пт
пт523:00−3зсз397825 0.0 1011669
02:00−3зсз497552 0.0 1011949
05:00−4ссз5978100 0.3 1012991
08:00−4ссз495567 0.3 1013935
11:00−2ссз47380 0.0 10151572
14:000зсз473817 0.0 10162034
17:00−2с2362100 0.1 1016830
20:00−3ссв3672100 0.9 1018878
6 марта, сб
сб623:00−5с266647 0.0 1020268
02:00−6зсз257024 0.0 1022158
05:00−6зсз25800 0.0 1022150
08:00−5зюз26800 0.0 1022264
11:00−1зюз585531 0.0 10211122
14:00+1зюз6125164 0.0 10171511
17:00+1зюз71551100 0.0 10141489
20:000зюз81757100 0.0 10101331
7 марта, вс
вс723:00−1зюз71591100 0.5 10051223
02:00−2сз71293100 4.6 1003949
05:00−4сз61456100 0.5 10051678
08:00−4з5105664 0.5 10051221
11:00−2зсз8135187 0.4 10042122
14:00−1з8155193 1.0 10022258
17:00−2зсз81559100 0.5 10002092
20:00−6сз6127287 0.6 10031123
8 марта, пн
пн823:00−6сз5979100 0.0 1006978
02:00−7ссз388694 0.1 1008547
05:00−8сз229047 0.0 100977
08:00−7ссз478874 0.2 1012662
11:00−7с4665100 0.1 10141017
14:00−6с5761100 0.2 10161205
17:00−6с4862100 0.0 10181230
20:00−9ссв397467 0.1 1021597
9 марта, вт
вт923:00−10с26790 0.0 1023211
02:00−10сз12830 0.0 102440
05:00−10зсз12820 0.0 102521
08:00−9зюз137411 0.0 1026104
11:00−3з35600 0.0 1026701
14:00−1з46470 0.0 1026976
17:00−3з37503 0.0 1025828
20:00−5юз310644 0.0 1026292